TITAN 3C TRANSTAGE DEB, 38690

Orbit data source: Space-Track

TITAN 3C TRANSTAGE DEB, 38690 is space debris in GEO originally from a launch on Thu, 26 Sep 1968 UTC launched from the Air Force Eastern Test Range (AFETR). Debris objects in space refer to the collection of defunct objects orbiting the Earth. Examples of debris include non-operational satellites, rocket bodies, and fragments generated from explosions, collisions, or faulty payload assembly.

Loading next visibility...
Identifier
38690, 1968-081Q
Orbit
GEO
Country
Flag of USUS
Related business
Manufacturer
Unknown
Mission
Spacecraft
Bus & Motor
Unknown
Mass
Unknown
Launch date (UTC)
1968-09-26 (58 years ago)
Launch vehicle
Unknown
Launch site
Air Force Eastern Test Range (AFETR)
Object type
Payload
Rocket body
Debris
Shape & HBR
Unknown shape, 1.1 m
Radar Cross Section
Large (>1 m²)

Expand to show TLE details & history
Last TLE update: 1 day ago

TLE from 1 day ago
0 TITAN 3C TRANSTAGE DEB
1 38690U 68081Q   26257.27866732 -.00000282  00000-0  00000-0 0  9995
2 38690   1.9798  25.1249 0247002 323.4640  35.2257  0.99326393 51376
Epoch: 2026-09-14T06:41Z
TLE epoch observation values (Epoch: 2026-09-14T06:41:16.856Z)
Latitude
-0.00001°
Longitude
-68.09323°
Altitude
35,201.164 km
Speed
3.127 km/s
True Right ascension
01h 41m 57s
True Declination
0° 00' 00"
Sunlit
Object was in daylight at epoch
Visualization orbit readout
Latitude
Unknown
Longitude
Unknown
Altitude
Unknown
Speed
Unknown
Apparent Right ascension
Unknown
Apparent Declination
Unknown
Sunlit
N/A
Visualization observer readout
Local Sidereal Time
04:10:33
Azimuth
Unknown
Elevation
Unknown
Doppler factor
Unknown
Orbital elements
Apogee altitude
37,102.887 km
Perigee altitude
35,006.684 km
Semi-major axis
42,432.923 km
Eccentricity
0.0247
Inclination
1.9798°
RAAN
25.1249°
Arg. of periapsis
323.464°
True anomaly
36.90025°
Mean anomaly
35.2257°
Eccentric anomaly
36.05872°
Mean motion
0.24831 °/min
Orbital period
1,449.82 mins
BSTAR
0
Loading maneuver chart data...
Computing Atmospheric mass density...

Documentation

Showing up to 5 results
|